Regional Weather Roundup
Issued by NWS Newport/Morehead, NC

Current Version | Previous Version | Text Only | Print | Product List | Glossary On
Versions: 1 2 3 4 5 6 7 8 9 10 11 12 13 14 15 16 17 18 19 20 21 22 23 24 25 26 27 28 29 30 31 32 33 34 35 36 37 38 39 40 41 42 43 44 45 46 47 48 49 50
000 ASUS42 KMHX 260313 RWRMHX WEATHER ROUNDUP FOR EASTERN NORTH CAROLINA NATIONAL WEATHER SERVICE NEWPORT/MOREHEAD CITY NC 1000 PM EST SAT FEB 25 2017 NOTE: "FAIR" INDICATES FEW OR NO CLOUDS BELOW 12,000 FEET WITH NO SIGNIFICANT WEATHER AND/OR OBSTRUCTIONS TO VISIBILITY NCZ015>017-031-032-045>047-102-103-260400- NORTH COAST CITY SKY/WX TMP DP RH WIND PRES REMARKS EDENTON CLOUDY 64 44 47 NW7 29.74R ELIZABETH CITY CLOUDY 63 41 44 NW18G25 29.73R KITTY HAWK NOT AVBL MANTEO MOCLDY 63 52 67 N10G16 29.72R $$ NCZ045>047-081-094-103-104-260400- CENTRAL COAST CITY SKY/WX TMP DP RH WIND PRES REMARKS FRISCO PTCLDY 67 60 78 SW17G29 29.70R HAZE $$ NCZ095-097-098-100-101-260400- SOUTHERN COAST CITY SKY/WX TMP DP RH WIND PRES REMARKS BEAUFORT PTCLDY 64 60 87 SW16G23 29.74R CEDAR ISLAND NOT AVBL JACKSONVILLE PTCLDY 64 58 80 W8 29.76R PINEY ISLAND PTCLDY N/A N/A N/A SW14 29.72R WILMINGTON PTCLDY 65 50 58 W16 29.79R $$ NCZ011>013-027>030-043-044-078>080-089-090>093-098-260400- COASTAL PLAIN CITY SKY/WX TMP DP RH WIND PRES REMARKS AHOSKIE N/A 58 38 46 NW5 29.76R CLINTON CLEAR 64 25 22 NW13G20 29.80R ELIZABETHTOWN CLEAR 66 23 19 W9G21 29.80R GOLDSBORO CLEAR 65 28 25 W12 29.76R GREENVILLE CLEAR 63 41 45 N8 29.79R HAVELOCK PTCLDY 64 58 80 SW10 29.75R KENANSVILLE CLEAR 66 27 22 NW14G22 29.78R KINSTON NOT AVBL NEW BERN CLEAR 65 58 78 SW9 29.74R RICHLANDS PTCLDY 64 49 57 SW8 29.77R ROCKY MOUNT CLEAR 60 32 34 NW8 29.78R WASHINGTON PTCLDY 62 43 49 NW8 29.76R WHITEVILLE CLEAR 66 23 19 W6 29.82R $$ AMZ130-135-150-152-154-156-158-170-250-252-270-ANZ085-086-088-633-658-670-260400- MARINE OBSERVATIONS STATION/POSITION TIME TEMP WIND PRES WAVE SWELL AIR SEA DIR/SP/G HT/PER HT/PER (UTC) (F) (DEG/KT/KT) (MB) (FT/S) (FT/S) CHESAPEAKE LIGHT NOT AVBL 64 E VA BEACH 0250 55 52 330/ 21/ 25 1004.5 7/11 5/11 DUCK 0242 63 47 310/ 13/ 16 1005.3 2 E DUCK 0230 50 N/A 4/11 2/11 OREGON INLET 0248 280/ 12/ 16 N/A 13E OREGON INLT NOT AVBL HATTERAS CG 0242 66 64 230/ 16/ 20 1005.4 DIAMOND BUOY 0250 72 75 240/ 29/ 33 1005.2 10/ 7 CAPE LOOKOUT 0200 66 230/ 16/ 23 1006.0 BEAUFORT LAB 0242 63 64 250/ 9/ 15 1006.0 30 SE NEW RVR IN 0208 67 250/ 23/ 31 1006.8 30 SE NEW RVR IN 0243 66 N/A 8/11 3/11 27 SE WRIGHTSVLE 0208 65 63 250/ 19/ 25 1006.1 5 SE WRIGHTSVLE 0208 62 58 220/ 10/ 17 1007.1 225 S CAPE HAT 0250 71 71 230/ 16/ 19 1011.5 6/10 5/10 41 SE CHARLESTON 0150 71 70 230/ 17/ 21 1009.0 6/11 5/11 $$

USA.gov is the U.S. government's official web portal to all federal, state and local government web resources and services.